Regional Weather Roundup
Issued by NWS

Home | Current Version | Previous Version | Graphics & Text | Print | Product List | Glossary On
Versions: 1 2 3 4 5 6 7 8 9 10 11 12 13 14 15 16 17 18 19 20 21 22 23 24 25 26 27 28 29 30 31 32 33 34 35 36 37 38 39 40 41 42 43 44 45 46 47 48 49 50
662
ASUS43 KBIS 231810
RWRND
NORTH DAKOTA REGIONAL WEATHER ROUNDUP
NATIONAL WEATHER SERVICE EASTERN NORTH DAKOTA/GRAND FORKS ND
100 PM CDT TUE MAY 23 2017

  NOTE: "FAIR" INDICATES FEW OR NO CLOUDS BELOW 12,000 FEET WITH NO
  SIGNIFICANT WEATHER AND/OR OBSTRUCTIONS TO VISIBILITY.

NDZ001>003-009>011-017-231900-
...NORTHWEST NORTH DAKOTA...

CITY           SKY/WX    TMP DP  RH WIND       PRES   REMARKS
WILLISTON      FAIR      68  35  29 E6        30.12F
6HR MIN TEMP:  37; 6HR MAX TEMP:  69;

MINOT          FAIR      65  35  33 N16G22    30.10F
MINOT AFB      FAIR      64  36  34 NE16G22   30.09F
6HR MIN TEMP:  43; 6HR MAX TEMP:  64;

$$

NDZ018>021-031>035-040>046-231900-
...SOUTHWEST NORTH DAKOTA...

CITY           SKY/WX    TMP DP  RH WIND       PRES   REMARKS
BISMARCK       PTSUNNY   63  36  36 N21G35    30.08F
DICKINSON      FAIR      61  32  33 N14       30.12S
GARRISON         N/A     61  35  37 NE10G24   30.09F
HETTINGER      PTSUNNY   60  32  34 N18G24    30.13S
$$

NDZ004>008-012>016-024-026-027-054-231900-
...NORTHEAST NORTH DAKOTA...

CITY           SKY/WX    TMP DP  RH WIND       PRES   REMARKS
GRAND FORKS    CLOUDY    59  44  57 NE18      30.00F
GRAND FORKS AF PTSUNNY   57  43  58 NE14      30.09R
DEVILS LAKE    PTSUNNY   60  39  45 N21G30    30.06F
$$

NDZ022-023-025-028>030-036>039-047>053-231900-
...SOUTHEAST NORTH DAKOTA...

CITY           SKY/WX    TMP DP  RH WIND       PRES   REMARKS
JAMESTOWN      CLOUDY    52  42  69 NE21G29   30.02S
FARGO          CLOUDY    52  45  77 N18       29.96S
WAHPETON       CLOUDY    52  45  76 N16G24    29.92F
$$




USA.gov is the U.S. government's official web portal to all federal, state and local government web resources and services.